DW1980 Weather Reports


Display with metric or nautical units.
time (UTC)temp
F
wind
direction
speed
MPH
gust
MPH
rain 1hr
in
rain 24hr
in
rain mn
in
humidity
%
barometer
mb
20201204012352 44 285 0.0 4.0 0.00 0.00 0.00 50 1021.8
20201204011840 44 238 0.0 3.0 0.00 0.00 0.00 51 1022.0
20201204011349 44 238 1.0 3.0 0.00 0.00 0.00 51 1022.0
20201204010840 45 238 2.0 3.0 0.00 0.00 0.00 51 1022.0
20201204010348 45 238 1.0 3.0 0.00 0.00 0.00 51 1021.8
20201204005855 45 238 0.0 7.0 0.00 0.00 0.00 51 1021.8
20201204005341 45 238 2.0 7.0 0.00 0.00 0.00 50 1021.8
20201204004851 45 259 1.0 4.0 0.00 0.00 0.00 51 1021.9
20201204004342 44 259 2.0 4.0 0.00 0.00 0.00 51 1021.9
20201204003850 44 259 2.0 3.0 0.00 0.00 0.00 49 1021.8
20201204003359 44 259 2.0 3.0 0.00 0.00 0.00 52 1021.8
20201204002847 44 259 2.0 3.0 0.00 0.00 0.00 51 1021.9
20201204002350 44 259 0.0 4.0 0.00 0.00 0.00 50 1021.9
20201204001840 45 248 1.0 3.0 0.00 0.00 0.00 51 1021.8
20201204000849 45 248 0.0 5.0 0.00 0.00 0.00 50 1021.8
20201204000414 45 248 2.0 4.0 0.00 0.00 0.00 50 1021.9
20201203235844 45 228 1.0 6.0 0.00 0.00 0.00 50 1022.1
20201203235356 45 227 2.0 8.0 0.00 0.00 0.00 49 1022.1
20201203234844 45 259 4.0 8.0 0.00 0.00 0.00 49 1022.3
20201203234352 45 238 2.0 7.0 0.00 0.00 0.00 48 1022.1
20201203233840 45 292 3.0 7.0 0.00 0.00 0.00 48 1022.1
20201203233353 45 227 2.0 5.0 0.00 0.00 0.00 49 1021.9
20201203232842 45 227 1.0 6.0 0.00 0.00 0.00 47 1021.9
20201203232349 45 227 3.0 6.0 0.00 0.00 0.00 46 1021.7
20201203231857 45 227 2.0 6.0 0.00 0.00 0.00 46 1021.5
20201203230845 46 227 1.0 7.0 0.00 0.00 0.00 45 1021.5
20201203230400 46 227 3.0 7.0 0.00 0.00 0.00 44 1021.7
20201203225843 46 254 3.0 7.0 0.00 0.00 0.00 44 1021.6
20201203225353 46 294 3.0 8.0 0.00 0.00 0.00 44 1021.5
20201203224844 46 227 3.0 8.0 0.00 0.00 0.00 44 1021.5
20201203224354 46 276 3.0 7.0 0.00 0.00 0.00 43 1021.5
20201203223844 46 262 2.0 7.0 0.00 0.00 0.00 44 1021.4
20201203223356 46 262 4.0 7.0 0.00 0.00 0.00 43 1021.3
20201203222837 46 262 4.0 7.0 0.00 0.00 0.00 44 1021.3
20201203222347 46 238 3.0 5.0 0.00 0.00 0.00 44 1021.3
20201203221853 46 240 2.0 9.0 0.00 0.00 0.00 44 1021.4
20201203221344 46 244 3.0 9.0 0.00 0.00 0.00 43 1021.5
20201203220851 46 225 4.0 11.0 0.00 0.00 0.00 43 1021.6
20201203220341 46 254 5.0 11.0 0.00 0.00 0.00 43 1021.6
20201203215846 46 227 4.0 10.0 0.00 0.00 0.00 43 1021.6
20201203215356 46 251 5.0 9.0 0.00 0.00 0.00 44 1021.6
20201203214856 46 259 4.0 8.0 0.00 0.00 0.00 45 1021.6
20201203214344 46 256 2.0 7.0 0.00 0.00 0.00 46 1021.5
20201203213852 46 265 3.0 7.0 0.00 0.00 0.00 45 1021.6
20201203213402 46 242 4.0 8.0 0.00 0.00 0.00 44 1021.7
20201203212843 47 241 3.0 8.0 0.00 0.00 0.00 44 1021.7
20201203212353 47 229 5.0 7.0 0.00 0.00 0.00 43 1021.7
20201203211842 47 253 4.0 7.0 0.00 0.00 0.00 44 1021.7
20201203211351 47 259 4.0 8.0 0.00 0.00 0.00 44 1021.6
20201203210840 47 215 3.0 6.0 0.00 0.00 0.00 43 1021.6
20201203210349 47 215 3.0 7.0 0.00 0.00 0.00 43 1021.6
20201203205910 47 215 3.0 7.0 0.00 0.00 0.00 43 1021.6
20201203205337 47 217 4.0 9.0 0.00 0.00 0.00 43 1021.6
20201203204846 47 277 3.0 9.0 0.00 0.00 0.00 44 1021.5
20201203204338 48 239 5.0 9.0 0.00 0.00 0.00 43 1021.5
20201203203849 48 231 3.0 6.0 0.00 0.00 0.00 44 1021.4
20201203203358 48 232 3.0 6.0 0.00 0.00 0.00 45 1021.4
20201203202844 48 261 1.0 9.0 0.00 0.00 0.00 45 1021.2
20201203202358 48 263 5.0 9.0 0.00 0.00 0.00 44 1021.3
20201203201847 48 196 4.0 7.0 0.00 0.00 0.00 44 1021.3
20201203201354 48 211 4.0 8.0 0.00 0.00 0.00 43 1021.4
20201203200842 48 211 4.0 10.0 0.00 0.00 0.00 45 1021.3
20201203200355 48 213 6.0 10.0 0.00 0.00 0.00 44 1021.4
20201203195838 48 244 3.0 7.0 0.00 0.00 0.00 46 1021.4
20201203195348 48 208 3.0 9.0 0.00 0.00 0.00 45 1021.3
20201203194855 48 205 6.0 9.0 0.00 0.00 0.00 44 1021.3
20201203194345 48 210 4.0 5.0 0.00 0.00 0.00 46 1021.3
20201203193855 48 211 3.0 6.0 0.00 0.00 0.00 46 1021.4
20201203193343 48 216 2.0 8.0 0.00 0.00 0.00 46 1021.3
20201203192849 48 224 5.0 8.0 0.00 0.00 0.00 46 1021.5
20201203192345 48 200 1.0 9.0 0.00 0.00 0.00 50 1021.4
20201203191847 47 265 3.0 9.0 0.00 0.00 0.00 51 1021.3
20201203191354 47 188 6.0 8.0 0.00 0.00 0.00 49 1021.3
20201203190840 47 192 2.0 8.0 0.00 0.00 0.00 51 1021.4
20201203190350 47 190 5.0 8.0 0.00 0.00 0.00 50 1021.5
20201203185854 47 204 4.0 8.0 0.00 0.00 0.00 52 1021.4
20201203184845 48 216 5.0 8.0 0.00 0.00 0.00 50 1021.6
20201203183854 48 188 5.0 8.0 0.00 0.00 0.00 51 1021.8
20201203182846 48 217 4.0 9.0 0.00 0.00 0.00 52 1021.9
20201203182354 47 213 5.0 9.0 0.00 0.00 0.00 54 1021.9
20201203181841 47 220 3.0 8.0 0.00 0.00 0.00 54 1022.0
20201203181352 46 254 3.0 8.0 0.00 0.00 0.00 56 1022.0
20201203180840 46 238 3.0 8.0 0.00 0.00 0.00 55 1022.0
20201203180347 46 235 3.0 8.0 0.00 0.00 0.00 55 1022.2
20201203175849 45 219 5.0 8.0 0.00 0.00 0.00 57 1022.3
20201203174850 45 219 4.0 7.0 0.00 0.00 0.00 58 1022.3
20201203174359 45 263 4.0 10.0 0.00 0.00 0.00 58 1022.2
20201203173845 45 200 5.0 10.0 0.00 0.00 0.00 57 1022.3
20201203173355 45 231 2.0 9.0 0.00 0.00 0.00 57 1022.3
20201203172839 45 219 5.0 10.0 0.00 0.00 0.00 56 1022.4
20201203172354 45 257 4.0 8.0 0.00 0.00 0.00 56 1022.4
20201203171859 45 232 4.0 9.0 0.00 0.00 0.00 57 1022.5
20201203171341 45 275 5.0 9.0 0.00 0.00 0.00 58 1022.5
20201203170848 45 248 4.0 10.0 0.00 0.00 0.00 58 1022.7
20201203170358 44 232 5.0 10.0 0.00 0.00 0.00 57 1022.7
20201203165842 44 261 6.0 9.0 0.00 0.00 0.00 57 1022.7
20201203165353 44 244 4.0 10.0 0.00 0.00 0.00 58 1022.7
20201203164838 44 266 4.0 10.0 0.00 0.00 0.00 59 1022.7
20201203163845 43 232 2.0 8.0 0.00 0.00 0.00 60 1022.8
20201203163354 43 223 6.0 8.0 0.00 0.00 0.00 60 1022.8
20201203162839 43 222 4.0 8.0 0.00 0.00 0.00 62 1022.9
20201203162349 42 262 2.0 9.0 0.00 0.00 0.00 62 1023.0
20201203161840 42 291 3.0 9.0 0.00 0.00 0.00 63 1023.2
20201203160844 41 244 4.0 8.0 0.00 0.00 0.00 63 1023.2
20201203160354 41 214 5.0 8.0 0.00 0.00 0.00 64 1023.3
20201203155840 41 267 3.0 9.0 0.00 0.00 0.00 64 1023.3
20201203155349 41 212 5.0 9.0 0.00 0.00 0.00 65 1023.3
20201203154337 41 220 4.0 10.0 0.00 0.00 0.00 66 1023.5
20201203153848 40 225 3.0 8.0 0.00 0.00 0.00 66 1023.7
20201203153356 40 213 4.0 7.0 0.00 0.00 0.00 66 1023.7
20201203152842 40 222 2.0 9.0 0.00 0.00 0.00 67 1023.7
20201203152351 40 226 2.0 10.0 0.00 0.00 0.00 68 1023.8
20201203151836 40 224 5.0 10.0 0.00 0.00 0.00 67 1023.9
20201203151550 39 257 3.0 9.0 0.00 0.00 0.00 67 1024.6
20201203150850 40 257 4.0 8.0 0.00 0.00 0.00 67 1023.8
20201203150354 40 225 6.0 8.0 0.00 0.00 0.00 67 1023.9
20201203145844 40 208 5.0 10.0 0.00 0.00 0.00 67 1023.7
20201203145352 40 214 5.0 10.0 0.00 0.00 0.00 68 1023.7
20201203144856 39 236 2.0 7.0 0.00 0.00 0.00 70 1023.6
20201203144343 39 220 4.0 9.0 0.00 0.00 0.00 69 1023.6
20201203143847 39 296 3.0 9.0 0.00 0.00 0.00 70 1023.6
20201203143338 39 280 6.0 9.0 0.00 0.00 0.00 71 1023.5
20201203142848 38 257 2.0 8.0 0.00 0.00 0.00 71 1023.6
20201203142352 38 269 3.0 8.0 0.00 0.00 0.00 72 1023.6
20201203141844 38 264 3.0 7.0 0.00 0.00 0.00 73 1023.5
20201203141348 37 269 2.0 5.0 0.00 0.00 0.00 74 1023.5
20201203140855 37 269 3.0 7.0 0.00 0.00 0.00 75 1023.4
20201203140346 36 227 3.0 10.0 0.00 0.00 0.00 76 1023.4
20201203135847 36 246 4.0 10.0 0.00 0.00 0.00 78 1023.4
20201203135338 35 281 3.0 5.0 0.00 0.00 0.00 79 1023.4
20201203134911 35 266 3.0 5.0 0.00 0.00 0.00 80 1023.5
20201203134353 34 227 2.0 5.0 0.00 0.00 0.00 81 1023.4
20201203133843 34 288 0.0 6.0 0.00 0.00 0.00 83 1023.4
20201203133356 33 293 2.0 6.0 0.00 0.00 0.00 84 1023.4
20201203132840 32 266 1.0 7.0 0.00 0.00 0.00 86 1023.3
20201203132350 32 266 2.0 7.0 0.00 0.00 0.00 87 1023.3
20201203131836 31 266 1.0 3.0 0.00 0.00 0.00 88 1023.3
20201203131539 30 266 1.0 3.0 0.00 0.00 0.00 89 1023.9
20201203130848 30 266 1.0 2.0 0.00 0.00 0.00 90 1023.4
20201203130354 30 266 0.0 0.0 0.00 0.00 0.00 90 1023.1
20201203125839 30 266 0.0 0.0 0.00 0.00 0.00 90 1023.1
20201203125348 30 266 0.0 0.0 0.00 0.00 0.00 89 1023.0
20201203124836 30 266 0.0 0.0 0.00 0.00 0.00 89 1023.0
20201203124346 29 266 0.0 0.0 0.00 0.00 0.00 89 1022.8
20201203123853 30 266 0.0 0.0 0.00 0.00 0.00 89 1022.9
20201203122845 30 266 0.0 0.0 0.00 0.00 0.00 88 1023.0
20201203122354 30 266 0.0 0.0 0.00 0.00 0.00 88 1022.9
20201203121843 30 266 0.0 0.0 0.00 0.00 0.00 88 1022.8
20201203121351 30 266 0.0 0.0 0.00 0.00 0.00 87 1022.9
20201203120842 31 266 0.0 0.0 0.00 0.00 0.00 86 1023.0
20201203120353 31 266 0.0 0.0 0.00 0.00 0.00 86 1023.1
20201203115838 31 266 0.0 2.0 0.00 0.00 0.00 86 1023.1
20201203114845 31 266 0.0 6.0 0.00 0.00 0.00 85 1023.1
20201203114354 32 265 0.0 0.0 0.00 0.00 0.00 84 1023.3
20201203113842 32 265 0.0 0.0 0.00 0.00 0.00 84 1023.2
20201203113352 32 265 0.0 1.0 0.00 0.00 0.00 84 1023.1
20201203112859 32 265 0.0 7.0 0.00 0.00 0.00 84 1023.0
20201203111344 33 248 1.0 4.0 0.00 0.00 0.00 83 1022.8
20201203110849 33 248 1.0 4.0 0.00 0.00 0.00 83 1022.7
20201203110358 33 267 0.0 8.0 0.00 0.00 0.00 83 1022.8
20201203105843 33 267 1.0 8.0 0.00 0.00 0.00 83 1022.9
20201203105351 32 254 3.0 9.0 0.00 0.00 0.00 84 1022.9
20201203104842 32 279 4.0 9.0 0.00 0.00 0.00 84 1022.9
20201203104350 32 287 2.0 8.0 0.00 0.00 0.00 85 1022.9
20201203103839 32 280 3.0 7.0 0.00 0.00 0.00 85 1022.9
20201203103359 32 261 3.0 7.0 0.00 0.00 0.00 86 1022.9
20201203102856 31 297 2.0 8.0 0.00 0.00 0.00 86 1022.9
20201203102340 31 290 3.0 8.0 0.00 0.00 0.00 87 1022.9
20201203101849 31 246 3.0 7.0 0.00 0.00 0.00 87 1022.8
20201203101341 30 278 2.0 6.0 0.00 0.00 0.00 87 1022.6
20201203100847 30 268 0.0 0.0 0.00 0.00 0.00 87 1022.5
20201203100356 31 268 0.0 0.0 0.00 0.00 0.00 86 1022.4
20201203095842 31 268 0.0 0.0 0.00 0.00 0.00 86 1022.4
20201203095357 31 268 0.0 0.0 0.00 0.00 0.00 86 1022.2
20201203094839 31 268 0.0 0.0 0.00 0.00 0.00 85 1022.2
20201203094348 32 268 0.0 0.0 0.00 0.00 0.00 85 1022.1
20201203093837 32 268 0.0 0.0 0.00 0.00 0.00 85 1022.0
20201203093347 32 268 0.0 4.0 0.00 0.00 0.00 85 1021.9
20201203092849 32 268 0.0 4.0 0.00 0.00 0.00 85 1021.8
20201203092340 32 270 0.0 6.0 0.00 0.00 0.00 85 1021.8
20201203091849 32 270 3.0 9.0 0.00 0.00 0.00 85 1021.8
20201203091336 32 282 4.0 9.0 0.00 0.00 0.00 86 1021.9
20201203090847 31 276 2.0 8.0 0.00 0.00 0.00 87 1021.7
20201203090357 31 277 3.0 10.0 0.00 0.00 0.00 88 1021.7
20201203085837 30 280 3.0 10.0 0.00 0.00 0.00 90 1021.7
20201203084852 29 265 3.0 7.0 0.00 0.00 0.00 90 1021.7
20201203084338 29 283 1.0 4.0 0.00 0.00 0.00 90 1021.7
20201203083847 29 283 1.0 3.0 0.00 0.00 0.00 90 1021.6
20201203083358 29 283 0.0 3.0 0.00 0.00 0.00 90 1021.6
20201203082835 29 283 1.0 2.0 0.00 0.00 0.00 90 1021.6
20201203081848 29 283 0.0 0.0 0.00 0.00 0.00 90 1021.7
20201203081357 29 283 0.0 0.0 0.00 0.00 0.00 90 1021.7
20201203080842 29 283 0.0 0.0 0.00 0.00 0.00 90 1021.7
20201203080354 29 283 0.0 0.0 0.00 0.00 0.00 90 1021.8
20201203075843 29 283 0.0 0.0 0.00 0.00 0.00 90 1021.8
20201203075353 29 283 0.0 0.0 0.00 0.00 0.00 89 1021.7
20201203074842 29 283 0.0 0.0 0.00 0.00 0.00 89 1021.7
20201203074349 29 283 0.0 0.0 0.00 0.00 0.00 89 1021.7
20201203073842 29 283 0.0 0.0 0.00 0.00 0.00 89 1021.8
20201203073351 29 283 0.0 0.0 0.00 0.00 0.00 89 1021.8
20201203072850 29 283 0.0 0.0 0.00 0.00 0.00 89 1021.7
20201203072338 30 283 0.0 0.0 0.00 0.00 0.00 88 1021.6
20201203071848 30 283 0.0 0.0 0.00 0.00 0.00 88 1021.6
20201203071530 30 283 0.0 0.0 0.00 0.00 0.00 88 1021.6
20201203070846 30 283 0.0 0.0 0.00 0.00 0.00 88 1021.6
20201203070404 30 283 0.0 0.0 0.00 0.00 0.00 88 1021.5
20201203065840 30 283 0.0 0.0 0.00 0.00 0.00 87 1021.4
20201203065347 31 283 0.0 0.0 0.00 0.00 0.00 87 1021.3
20201203064851 31 283 0.0 0.0 0.00 0.00 0.00 86 1021.3
20201203064340 31 283 0.0 0.0 0.00 0.00 0.00 86 1021.2
20201203063854 31 283 0.0 0.0 0.00 0.00 0.00 86 1021.1
20201203063339 32 283 0.0 0.0 0.00 0.00 0.00 85 1021.1
20201203062847 32 283 0.0 0.0 0.00 0.00 0.00 85 1021.1
20201203062355 32 283 0.0 0.0 0.00 0.00 0.00 85 1021.0
20201203061847 32 283 0.0 0.0 0.00 0.00 0.00 84 1020.9
20201203061353 32 283 0.0 3.0 0.00 0.00 0.00 84 1020.9
20201203060844 32 283 0.0 3.0 0.00 0.00 0.00 84 1020.9
20201203060355 32 283 0.0 4.0 0.00 0.00 0.00 85 1020.8
20201203055838 31 283 1.0 7.0 0.00 0.00 0.00 85 1020.8
20201203054850 31 284 1.0 4.0 0.00 0.00 0.00 85 1020.8
20201203054358 31 284 1.0 4.0 0.00 0.00 0.00 85 1020.9
20201203053841 31 284 2.0 5.0 0.00 0.00 0.00 85 1020.8
20201203053350 31 284 3.0 4.0 0.00 0.00 0.00 84 1020.8
20201203052834 31 284 0.0 2.0 0.00 0.00 0.00 84 1020.7
20201203052345 32 284 1.0 2.0 0.00 0.00 0.00 84 1020.7
20201203051856 32 284 1.0 2.0 0.00 0.00 0.00 83 1020.7
20201203051344 32 284 0.0 0.0 0.00 0.00 0.00 83 1020.6
20201203050852 32 284 0.0 0.0 0.00 0.00 0.00 82 1020.5
20201203050345 33 284 0.0 0.0 0.00 0.00 0.00 82 1020.5
20201203045852 33 284 0.0 0.0 0.00 0.00 0.00 81 1020.5
20201203045339 33 284 0.0 0.0 0.00 0.00 0.00 81 1020.6
20201203044847 33 284 0.0 1.0 0.00 0.00 0.00 80 1020.6
20201203044337 34 284 0.0 2.0 0.00 0.00 0.00 79 1020.5
20201203043845 34 284 0.0 2.0 0.00 0.00 0.00 79 1020.5
20201203043354 35 284 0.0 0.0 0.00 0.00 0.00 78 1020.4
20201203042838 35 284 0.0 3.0 0.00 0.00 0.00 78 1020.4
20201203042352 36 284 0.0 4.0 0.00 0.00 0.00 77 1020.4
20201203041854 36 285 0.0 1.0 0.00 0.00 0.00 76 1020.4
20201203041343 36 285 0.0 7.0 0.00 0.00 0.00 75 1020.3
20201203040854 36 285 2.0 7.0 0.00 0.00 0.00 74 1020.2
20201203040342 36 269 1.0 6.0 0.00 0.00 0.00 74 1020.1
20201203035849 36 269 1.0 6.0 0.00 0.00 0.00 74 1020.0
20201203035356 36 281 0.0 5.0 0.00 0.00 0.00 74 1020.0
20201203034842 36 281 1.0 8.0 0.00 0.00 0.00 74 1019.9
20201203034350 37 285 3.0 7.0 0.00 0.00 0.00 74 1019.8
20201203033837 37 280 2.0 9.0 0.00 0.00 0.00 74 1019.7
20201203033349 37 298 3.0 11.0 0.00 0.00 0.00 74 1019.7
20201203032844 37 301 3.0 9.0 0.00 0.00 0.00 74 1019.6
20201203032354 36 290 4.0 9.0 0.00 0.00 0.00 74 1019.6
20201203031843 36 274 3.0 7.0 0.00 0.00 0.00 75 1019.6
20201203031352 36 270 4.0 9.0 0.00 0.00 0.00 76 1019.5
20201203030840 36 278 5.0 9.0 0.00 0.00 0.00 76 1019.4
20201203030350 36 269 0.0 4.0 0.00 0.00 0.00 76 1019.3
20201203025839 36 269 1.0 7.0 0.00 0.00 0.00 76 1019.3
20201203025346 37 269 1.0 7.0 0.00 0.00 0.00 76 1019.2
20201203024836 37 269 0.0 4.0 0.00 0.00 0.00 75 1019.1
20201203024345 37 269 1.0 4.0 0.00 0.00 0.00 75 1019.0
20201203023856 37 269 0.0 7.0 0.00 0.00 0.00 75 1018.9
20201203023341 38 269 1.0 7.0 0.00 0.00 0.00 75 1018.8
20201203022852 37 265 2.0 7.0 0.00 0.00 0.00 74 1018.8
20201203022350 38 259 2.0 6.0 0.00 0.00 0.00 75 1018.7
20201203021857 38 259 2.0 9.0 0.00 0.00 0.00 75 1018.7
20201203021341 38 263 3.0 11.0 0.00 0.00 0.00 75 1018.6
20201203020850 38 273 2.0 11.0 0.00 0.00 0.00 75 1018.7
20201203020401 38 278 0.0 4.0 0.00 0.00 0.00 74 1018.6
20201203015846 38 278 0.0 5.0 0.00 0.00 0.00 74 1018.6
20201203015351 38 277 2.0 10.0 0.00 0.00 0.00 74 1018.5
20201203014835 38 283 3.0 10.0 0.00 0.00 0.00 74 1018.4
20201203014347 38 273 2.0 9.0 0.00 0.00 0.00 74 1018.5
20201203013851 38 259 4.0 8.0 0.00 0.00 0.00 74 1018.4
20201203013343 38 270 3.0 11.0 0.00 0.00 0.00 74 1018.4
20201203012846 38 333 6.0 11.0 0.00 0.00 0.00 75 1018.3